This is the latest recevied weather packets stored in our database for station/object CA3SQH-10. If no packets are shown the sender has not sent any weather packets the latest 10 day(s).
| Time | Temp. | Humidity | Pressure | Rain* | Wind** | Luminosity | Snow |
|---|---|---|---|---|---|---|---|
| 1777403171 | 24.44° C | 31% | 938.9 hPa | - | - | - | - |
| 1777402271 | 25° C | 30% | 938.9 hPa | - | - | - | - |
| 1777401371 | 25° C | 30% | 938.9 hPa | - | - | - | - |
| 1777400471 | 25° C | 31% | 939 hPa | - | - | - | - |
| 1777399571 | 24.44° C | 31% | 939.2 hPa | - | - | - | - |
| 1777398670 | 24.44° C | 31% | 939.3 hPa | - | - | - | - |
| 1777397772 | 24.44° C | 30% | 939.4 hPa | - | - | - | - |
| 1777396872 | 24.44° C | 31% | 939.7 hPa | - | - | - | - |
| 1777395971 | 23.89° C | 30% | 940 hPa | - | - | - | - |
| 1777395071 | 23.89° C | 29% | 940.2 hPa | - | - | - | - |
| 1777394171 | 23.89° C | 29% | 940.3 hPa | - | - | - | - |
| 1777393271 | 23.33° C | 30% | 940.4 hPa | - | - | - | - |
| 1777392371 | 22.78° C | 31% | 940.4 hPa | - | - | - | - |
| 1777391470 | 22.22° C | 32% | 940.5 hPa | - | - | - | - |
| 1777390570 | 21.67° C | 33% | 940.5 hPa | - | - | - | - |
| 1777389670 | 21.11° C | 33% | 940.5 hPa | - | - | - | - |
| 1777388770 | 20.56° C | 35% | 940.5 hPa | - | - | - | - |
| 1777387870 | 20° C | 35% | 940.5 hPa | - | - | - | - |
| 1777386969 | 19.44° C | 37% | 940.6 hPa | - | - | - | - |
| 1777386069 | 18.89° C | 37% | 940.5 hPa | - | - | - | - |
| 1777385169 | 18.33° C | 38% | 940.6 hPa | - | - | - | - |
| 1777384269 | 17.78° C | 39% | 940.7 hPa | - | - | - | - |
| 1777383369 | 17.22° C | 41% | 940.7 hPa | - | - | - | - |
| 1777382468 | 16.67° C | 42% | 940.8 hPa | - | - | - | - |
| 1777381568 | 16.11° C | 45% | 940.8 hPa | - | - | - | - |
* Rain since midnight (hover to see other rain measurements)
** Current wind speed in m/s (hover to see current wind gust speed)